AURA

Last updated on Mon Nov 03 2025 00:02:34 GMT+0000 (Coordinated Universal Time)

1 28376U 04026A 25306.44762130 .00001400 00000+0 29657-3 0 9997 2 28376 98.3116 256.5053 0001184 66.2009 293.9315 14.60797979133108
UTC large
Height (km)
Speed (km/s)
/
Latitude / Longitude
Inclination (degrees)
Orbital Period (minutes)
Azimuth
Elevation
Range (km)
Doppler Factor

Next 0 passes for location: London (51.5072 / 0.1276)

Sorry there are no passes over London.